Home   Weather   Kragerø   Past weeks

Flag for Norway Past Weather in Kragerø, Norway — Yesterday and Last 2 Weeks

Now
39 °F

Chilly.


Feels Like: 39 °F
Forecast: 32 / 40 °F
Wind: 2 mph from West

Location: Jomfruland Fyr

Current Time: Jan 20, 2017 at 11:28:06 pm

Latest Report: Jan 20, 2017 at 10:00 pm


Visibility: N/A

Pressure: 30.36 "Hg

Humidity: 85%

Dew Point: 35 °F

Location of KragerøLocation

Past Weather in Kragerø — Graph

°F

Kragerø Temperature Yesterday

Maximum temperature yesterday: 48 °F (at 3:00 pm)
Minimum temperature yesterday: 38 °F (at 12:00 am)
Average temperature yesterday: 41 °F

High & Low Weather Summary for the Past Weeks

 TemperatureHumidityPressure
High48 °F (Jan 19, 3:00 pm)98% (Jan 18, 9:00 am)30.70 "Hg (Jan 18, 9:00 am)
Low24 °F (Jan 5, 11:00 pm)43% (Jan 15, 2:00 pm)28.50 "Hg (Jan 11, 2:00 pm)
Average36 °F80%29.91 "Hg
* Reported Jan 5 10:00 pm — Jan 20 10:00 pm, Kragerø, Weather by CustomWeather, © 2017

Note: Actual official high and low records may vary slightly from our data, if they occured in-between our weather recording intervals... More about our weather records

Advertising

Kragerø Weather History for the Previous 24 Hours

Scroll right to see more
 ConditionsComfort  
Time TempWeatherWind HumidityBarometerVisibility
10:00 pm
Fri, Jan 20
39 °FChilly.2 mph85%30.36 "HgN/A
9:00 pm41 °FQuite cool.2 mph80%30.35 "HgN/A
8:00 pm42 °FQuite cool.1 mph81%30.33 "HgN/A
7:00 pm41 °FQuite cool.5 mph81%30.32 "HgN/A
6:00 pm41 °FQuite cool.3 mph84%30.31 "HgN/A
5:00 pm41 °FQuite cool.3 mph82%30.30 "HgN/A
4:00 pm42 °FQuite cool.7 mph83%30.29 "HgN/A
3:00 pm43 °FQuite cool.7 mph75%30.28 "HgN/A
2:00 pm43 °FQuite cool.5 mph76%30.29 "HgN/A
1:00 pm41 °FQuite cool.7 mph81%30.30 "HgN/A
12:00 pm40 °FQuite cool.6 mph86%30.32 "HgN/A
11:00 am40 °FChilly.7 mph87%30.32 "HgN/A
10:00 am40 °FChilly.5 mph87%30.31 "HgN/A
9:00 am39 °FChilly.5 mph87%30.30 "HgN/A
8:00 am40 °FQuite cool.7 mph82%30.27 "HgN/A
7:00 am40 °FQuite cool.5 mph85%30.27 "HgN/A
6:00 am42 °FQuite cool.7 mph80%30.27 "HgN/A
5:00 am41 °FQuite cool.6 mph81%30.28 "HgN/A
4:00 am43 °FQuite cool.5 mph74%30.29 "HgN/A
3:00 am42 °FQuite cool.7 mph81%30.30 "HgN/A
2:00 am42 °FQuite cool.8 mph80%30.31 "HgN/A
1:00 am42 °FQuite cool.7 mph81%30.32 "HgN/A
12:00 am41 °FQuite cool.7 mph82%30.32 "HgN/A
11:00 pm
Thu, Jan 19
41 °FQuite cool.6 mph83%30.32 "HgN/A
Weather by CustomWeather, © 2017

See weather overviewHow to use our weather pages